This is the latest recevied weather packets stored in our database for station/object KE0PRS. If no packets are shown the sender has not sent any weather packets the latest 10 day(s).
| Time | Temp. | Humidity | Pressure | Rain* | Wind** | Luminosity | Snow |
|---|---|---|---|---|---|---|---|
| 1787936980 | 30.56° C | 49% | 1020.6 hPa | 0 mm | - | 677 W/m² | - |
| 1787936679 | 30.56° C | 49% | 1020.7 hPa | 0 mm | - | 667 W/m² | - |
| 1787936379 | 30° C | 50% | 1020.7 hPa | 0 mm | - | 653 W/m² | - |
| 1787936075 | 30° C | 52% | 1020.8 hPa | 0 mm | - | 643 W/m² | - |
| 1787935770 | 29.44° C | 51% | 1020.9 hPa | 0 mm | - | 631 W/m² | - |
| 1787935466 | 29.44° C | 52% | 1020.9 hPa | 0 mm | - | 615 W/m² | - |
| 1787935162 | 28.89° C | 52% | 1021 hPa | 0 mm | - | 600 W/m² | - |
| 1787934857 | 28.89° C | 51% | 1021.1 hPa | 0 mm | - | 591 W/m² | - |
| 1787934557 | 28.89° C | 52% | 1020.9 hPa | 0 mm | - | 575 W/m² | - |
| 1787934252 | 28.89° C | 53% | 1021.2 hPa | 0 mm | - | 561 W/m² | - |
| 1787933951 | 28.33° C | 54% | 1021 hPa | 0 mm | - | 549 W/m² | - |
| 1787933650 | 28.33° C | 55% | 1021.2 hPa | 0 mm | - | 540 W/m² | - |
| 1787933346 | 28.33° C | 53% | 1021 hPa | 0 mm | - | 521 W/m² | - |
| 1787933045 | 27.78° C | 55% | 1021.2 hPa | 0 mm | - | 507 W/m² | - |
| 1787932744 | 27.78° C | 54% | 1021.3 hPa | 0 mm | - | 490 W/m² | - |
| 1787932438 | 27.78° C | 55% | 1021.4 hPa | 0 mm | - | 478 W/m² | - |
| 1787932133 | 27.78° C | 55% | 1021.3 hPa | 0 mm | - | 464 W/m² | - |
| 1787931832 | 27.22° C | 62% | 1021.5 hPa | 0 mm | - | 450 W/m² | - |
| 1787931533 | 26.67° C | 61% | 1021.2 hPa | 0 mm | - | 443 W/m² | - |
| 1787931232 | 26.67° C | 61% | 1021.3 hPa | 0 mm | - | 429 W/m² | - |
| 1787930932 | 26.11° C | 61% | 1021.4 hPa | 0 mm | - | 417 W/m² | - |
| 1787930631 | 25.56° C | 63% | 1021.4 hPa | 0 mm | - | 399 W/m² | - |
| 1787930326 | 25.56° C | 63% | 1021.2 hPa | 0 mm | - | 390 W/m² | - |
| 1787930021 | 25° C | 63% | 1021.4 hPa | 0 mm | - | 517 W/m² | - |
| 1787929719 | 25° C | 64% | 1021.4 hPa | 0 mm | - | 524 W/m² | - |
* Rain latest hour (hover to see other rain measurements)
** Current wind speed in m/s (hover to see current wind gust speed)